DW8108 Weather Reports


Display with metric or nautical units.
time (UTC)temp
F
wind
direction
speed
MPH
gust
MPH
rain 1hr
in
rain 24hr
in
rain mn
in
humidity
%
barometer
mb
20260905111521 74 0.0 0.0 0.00 0.00 0.00 97 1010.6
20260905110020 75 0.0 0.0 0.00 0.00 0.00 97 1010.5
20260905104519 74 0.0 1.0 0.00 0.00 0.00 96 1010.6
20260905103018 74 0.0 1.0 0.00 0.00 0.00 96 1010.6
20260905101522 75 0.0 1.0 0.00 0.00 0.00 96 1010.7
20260905100018 75 0.0 3.0 0.00 0.00 0.00 96 1010.7
20260905094515 75 0.0 2.0 0.00 0.00 0.00 96 1010.8
20260905093013 75 0.0 0.0 0.00 0.00 0.00 96 1010.7
20260905091514 75 0.0 0.0 0.00 0.00 0.00 96 1010.6
20260905090015 75 0.0 0.0 0.00 0.00 0.00 96 1010.8
20260905084513 75 0.0 0.0 0.00 0.00 0.00 96 1010.9
20260905083010 75 0.0 0.0 0.00 0.00 0.00 96 1010.8
20260905081519 76 0.0 0.0 0.00 0.00 0.00 95 1010.6
20260905080015 76 0.0 0.0 0.00 0.00 0.00 96 1010.6
20260905074509 77 0.0 3.0 0.00 0.00 0.00 96 1010.5
20260905073009 77 0.0 5.0 0.00 0.00 0.00 96 1010.3
20260905071507 77 0.0 5.0 0.00 0.00 0.00 96 1010.2
20260905070013 77 0.0 6.0 0.00 0.00 0.00 96 1010.2
20260905064505 75 0.0 5.0 0.00 0.00 0.00 95 1010.3
20260905063002 76 0.0 0.0 0.00 0.00 0.00 95 1010.6
20260905061502 76 0.0 0.0 0.00 0.00 0.00 95 1010.7
20260905060100 76 0.0 0.0 0.00 0.00 0.00 94 1010.6
20260905054602 77 0.0 0.0 0.00 0.00 0.00 94 1010.9
20260905053056 77 0.0 0.0 0.00 0.00 0.00 94 1011.0
20260905051553 77 0.0 3.0 0.00 0.00 0.00 94 1010.9
20260905050051 77 0.0 0.0 0.00 0.00 0.00 94 1010.9
20260905044550 77 0.0 0.0 0.00 0.00 0.00 94 1011.2
20260905043049 78 0.0 0.0 0.00 0.00 0.00 94 1011.2
20260905041555 78 0.0 0.0 0.00 0.00 0.00 93 1011.0
20260905040052 78 0.0 0.0 0.00 0.00 0.00 93 1011.1
20260905034548 78 0.0 0.0 0.00 0.00 0.00 93 1011.2
20260905033052 79 0.0 0.0 0.00 0.00 0.00 93 1011.3
20260905031550 79 0.0 1.0 0.00 0.00 0.00 92 1011.4
20260905030048 80 0.0 0.0 0.00 0.00 0.00 92 1011.5
20260905024545 80 0.0 0.0 0.00 0.00 0.00 92 1011.3
20260905023045 80 0.0 0.0 0.00 0.00 0.00 91 1011.4
20260905021545 80 0.0 0.0 0.00 0.00 0.00 90 1011.5
20260905020048 81 0.0 0.0 0.00 0.00 0.00 90 1011.1
20260905014545 81 0.0 0.0 0.00 0.00 0.00 88 1010.9
20260905013043 82 0.0 0.0 0.00 0.00 0.00 88 1010.6
20260905011542 83 0.0 2.0 0.00 0.00 0.00 87 1010.6
20260905010046 84 0.0 2.0 0.00 0.00 0.00 86 1010.6
20260905004542 85 0.0 0.0 0.00 0.00 0.00 83 1010.4
20260905003041 86 0.0 0.0 0.00 0.00 0.00 82 1010.4
20260905001541 87 0.0 0.0 0.00 0.00 0.00 80 1010.5
20260905000042 88 0.0 2.0 0.00 0.00 0.00 80 1010.5
20260904234547 89 0.0 3.0 0.00 0.00 0.00 79 1010.4
20260904233038 90 0.0 4.0 0.00 0.00 0.00 76 1010.5
20260904231537 91 0.0 5.0 0.00 0.00 0.00 76 1010.4
20260904230040 93 0.0 5.0 0.00 0.00 0.00 73 1010.4
20260904224541 93 0.0 0.0 0.00 0.00 0.00 72 1010.4
20260904223035 93 0.0 2.0 0.00 0.00 0.00 72 1010.3
20260904221536 93 0.0 6.0 0.00 0.00 0.00 71 1010.2
20260904220033 92 0.0 6.0 0.00 0.00 0.00 72 1010.1
20260904214530 92 0.0 7.0 0.00 0.00 0.00 72 1010.2
20260904213032 92 0.0 10.0 0.00 0.00 0.00 71 1010.4
20260904211528 92 0.0 9.0 0.00 0.00 0.00 71 1010.4
20260904210028 92 0.0 8.0 0.00 0.00 0.00 71 1010.5
20260904204524 92 0.0 9.0 0.00 0.00 0.00 70 1010.8
20260904203032 92 0.0 11.0 0.00 0.00 0.00 71 1010.9
20260904201522 91 0.0 8.0 0.00 0.00 0.00 74 1011.2
20260904200021 90 0.0 8.0 0.00 0.00 0.00 74 1011.4
20260904194521 90 0.0 9.0 0.00 0.00 0.00 75 1011.7
20260904193021 89 0.0 10.0 0.00 0.00 0.00 74 1011.9
20260904191520 89 0.0 9.0 0.00 0.00 0.00 75 1011.9
20260904190021 88 0.0 12.0 0.00 0.00 0.00 75 1012.2
20260904184513 88 0.0 16.0 0.00 0.00 0.00 74 1012.7
20260904183013 89 0.0 15.0 0.00 0.00 0.00 74 1013.1
20260904181512 90 0.0 10.0 0.00 0.00 0.00 72 1013.2
20260904180014 90 0.0 9.0 0.00 0.00 0.00 73 1013.5
20260904174511 89 0.0 13.0 0.00 0.00 0.00 74 1013.7
20260904173010 89 0.0 10.0 0.00 0.00 0.00 72 1013.9
20260904171510 91 0.0 5.0 0.00 0.00 0.00 71 1013.6
20260904170010 91 0.0 8.0 0.00 0.00 0.00 69 1013.5
20260904164510 92 0.0 7.0 0.00 0.00 0.00 69 1013.6
20260904163007 92 0.0 5.0 0.00 0.00 0.00 68 1013.5
20260904161504 91 0.0 6.0 0.00 0.00 0.00 69 1013.5
20260904160100 90 0.0 6.0 0.00 0.00 0.00 70 1013.6
20260904154558 89 0.0 8.0 0.00 0.00 0.00 71 1013.4
20260904153057 89 0.0 8.0 0.00 0.00 0.00 74 1013.3
20260904151551 88 0.0 7.0 0.00 0.00 0.00 75 1013.1
20260904150049 87 0.0 8.0 0.00 0.00 0.00 76 1013.2
20260904144544 86 0.0 7.0 0.00 0.00 0.00 77 1013.1
20260904143042 85 0.0 6.0 0.00 0.00 0.00 81 1012.8
20260904141539 84 0.0 2.0 0.00 0.00 0.00 83 1012.9
20260904140048 82 0.0 4.0 0.00 0.00 0.00 85 1012.9
20260904134530 81 0.0 4.0 0.00 0.00 0.00 88 1012.9
20260904133027 80 0.0 0.0 0.00 0.00 0.00 93 1013.0
20260904131522 78 0.0 0.0 0.00 0.00 0.00 94 1012.9
20260904130033 77 0.0 0.0 0.00 0.00 0.00 95 1012.7
20260904124518 75 0.0 2.0 0.00 0.00 0.00 96 1012.6
20260904123015 74 0.0 2.0 0.00 0.00 0.00 96 1012.3
20260904121515 73 0.0 2.0 0.00 0.00 0.00 95 1012.0
20260904120016 73 0.0 2.0 0.00 0.00 0.00 95 1012.0
20260904114513 73 0.0 2.0 0.00 0.00 0.00 95 1011.5
20260904113013 73 0.0 2.0 0.00 0.00 0.00 95 1011.4